Location: Wrocław
(51.1079°N, 17.0385°E)
Time: 13:12:09
(UTC+01:00)

ISS - Visible Passes

Search period start: 24 March 2019 00:00
Search period end: 03 April 2019 01:00
Orbit: 408 x 411 km, 51.6° (Epoch: 24 March)

Date Brightness Start Highest point End Pass type
(mag) Time Alt. Az. Time Alt. Az. Time Alt. Az.
24 Mar -3.3 19:32:51 10° SW 19:36:00 41° SSE 19:37:09 29° ESE visible
24 Mar -1.1 21:09:10 10° W 21:09:56 16° W 21:09:56 16° W visible
25 Mar -2.7 18:42:34 10° SSW 18:45:28 29° SSE 18:48:22 10° E visible
25 Mar -3.8 20:18:30 10° WSW 20:21:38 78° SW 20:21:38 78° SW visible
26 Mar -3.8 19:27:53 10° WSW 19:31:10 68° SSE 19:33:13 21° E visible
26 Mar -1.6 21:04:27 10° W 21:05:59 25° W 21:05:59 25° W visible
27 Mar -3.8 20:13:45 10° W 20:17:04 80° N 20:17:27 66° ENE visible
28 Mar -3.8 19:23:03 10° W 19:26:22 88° N 19:28:52 16° E visible
28 Mar -2.1 20:59:41 10° W 21:01:37 32° W 21:01:37 32° W visible
29 Mar -3.8 20:08:58 10° W 20:12:18 81° N 20:12:58 54° E visible
29 Mar -0.5 21:45:36 10° W 21:45:43 11° W 21:45:43 11° W visible
30 Mar -3.7 19:18:14 10° W 19:21:32 79° N 19:24:16 14° E visible
30 Mar -2.4 20:54:52 10° W 20:57:01 36° W 20:57:01 36° W visible
31 Mar -3.9 21:04:07 10° W 21:07:26 81° SSW 21:08:18 46° ESE visible
31 Mar -0.6 22:40:56 10° W 22:41:03 11° W 22:41:03 11° W visible
01 Apr -3.8 20:13:22 10° W 20:16:42 86° N 20:19:35 13° E visible
01 Apr -2.4 21:50:03 10° W 21:52:20 32° WSW 21:52:20 32° WSW visible
02 Apr -3.5 20:59:14 10° W 21:02:29 54° SSW 21:03:36 34° SE visible
